GW4329 Weather Reports


Display with metric or nautical units.
time (UTC)temp
F
wind
direction
speed
MPH
gust
MPH
rain 1hr
in
rain 24hr
in
rain mn
in
humidity
%
barometer
mb
20260506072917 50 12 2.0 5.0 0.00 0.00 0.00 72 1007.7
20260506071803 50 14 2.0 9.0 0.00 0.00 0.00 74 1007.7
20260506070903 50 6 3.0 10.0 0.00 0.00 0.00 77 1007.6
20260506070219 50 21 3.0 10.0 0.00 0.00 0.00 77 1007.7
20260506061803 50 5 2.0 7.0 0.00 0.00 0.00 81 1007.2
20260506060903 50 8 3.0 7.0 0.00 0.00 0.00 81 1007.1
20260506060218 49 7 3.0 10.0 0.00 0.00 0.00 82 1007.1
20260506050903 49 357 3.0 7.0 0.00 0.00 0.00 83 1007.0
20260506044503 49 355 3.0 5.0 0.00 0.00 0.00 84 1007.1
20260506043816 49 5 3.0 7.0 0.00 0.00 0.00 84 1007.0
20260506042703 49 354 3.0 7.0 0.00 0.00 0.00 84 1007.0
20260506042019 49 2 3.0 8.0 0.00 0.00 0.00 83 1007.0
20260506040903 49 2 3.0 9.0 0.00 0.00 0.00 83 1007.0
20260506040003 49 360 3.0 5.0 0.00 0.00 0.00 83 1007.0
20260506035403 49 3 3.0 5.0 0.00 0.00 0.00 83 1007.0
20260506034717 49 2 3.0 6.0 0.00 0.00 0.00 83 1007.1
20260506033816 49 355 2.0 6.0 0.00 0.00 0.00 83 1007.1
20260506032703 49 357 3.0 5.0 0.00 0.00 0.00 83 1007.2
20260506031803 49 2 3.0 6.0 0.00 0.00 0.00 83 1007.2
20260506030903 49 357 3.0 6.0 0.00 0.00 0.00 83 1007.3
20260506030003 49 351 3.0 7.0 0.00 0.00 0.00 83 1007.5
20260506025403 49 350 3.0 6.0 0.00 0.00 0.00 83 1007.5
20260506024503 49 352 2.0 5.0 0.00 0.00 0.00 83 1007.7
20260506023815 49 358 3.0 6.0 0.00 0.00 0.00 83 1007.6
20260506022703 48 2 2.0 4.0 0.00 0.00 0.00 84 1007.7
20260506021803 48 360 2.0 4.0 0.00 0.00 0.00 84 1007.7
20260506020903 48 360 2.0 5.0 0.00 0.00 0.00 85 1007.7
20260506020003 48 6 2.0 4.0 0.00 0.00 0.00 86 1007.8
20260506015403 48 9 2.0 3.0 0.00 0.00 0.00 86 1007.9
20260506014503 48 2 2.0 5.0 0.00 0.00 0.00 86 1007.9
20260506013603 48 2 3.0 5.0 0.00 0.00 0.00 86 1008.0
20260506012919 48 356 2.0 5.0 0.00 0.00 0.00 86 1008.0
20260506011803 48 4 3.0 6.0 0.00 0.00 0.00 86 1008.1
20260506010903 48 359 3.0 6.0 0.00 0.00 0.00 85 1008.1
20260506010003 48 355 4.0 8.0 0.00 0.00 0.00 84 1008.3
20260506005403 48 352 4.0 7.0 0.00 0.00 0.00 83 1008.3
20260506004716 48 356 3.0 7.0 0.00 0.00 0.00 83 1008.3
20260506003603 48 356 3.0 7.0 0.00 0.00 0.00 82 1008.3
20260506002703 49 2 3.0 8.0 0.00 0.00 0.00 82 1008.3
20260506001803 49 1 3.0 7.0 0.00 0.00 0.00 82 1008.4
20260506000903 49 358 3.0 9.0 0.00 0.00 0.00 82 1008.5
20260506000003 49 360 3.0 9.0 0.00 0.00 0.00 82 1008.5
20260505235403 49 6 3.0 9.0 0.00 0.00 0.00 81 1008.6
20260505234503 49 2 4.0 8.0 0.00 0.00 0.00 80 1008.7
20260505233603 49 4 2.0 6.0 0.00 0.00 0.00 80 1008.8
20260505232703 49 6 3.0 7.0 0.00 0.00 0.00 80 1008.7
20260505231803 49 4 4.0 13.0 0.00 0.00 0.00 81 1008.8
20260505230903 49 360 3.0 10.0 0.00 0.00 0.00 81 1008.8
20260505230216 49 2 3.0 10.0 0.00 0.00 0.00 81 1008.9
20260505225403 49 10 3.0 8.0 0.00 0.00 0.00 80 1008.9
20260505224503 49 9 3.0 6.0 0.00 0.00 0.00 80 1009.0
20260505223603 50 7 3.0 8.0 0.00 0.00 0.00 80 1009.0
20260505222703 50 3 3.0 13.0 0.00 0.00 0.00 80 1009.0
20260505221803 50 350 3.0 6.0 0.00 0.00 0.00 81 1009.1
20260505220903 50 2 3.0 8.0 0.00 0.00 0.00 81 1009.2
20260505220003 50 355 2.0 6.0 0.00 0.00 0.00 81 1009.3
20260505215403 50 348 2.0 6.0 0.00 0.00 0.00 81 1009.2
20260505214718 50 2 3.0 8.0 0.00 0.00 0.00 80 1009.2
20260505213603 50 5 2.0 5.0 0.00 0.00 0.00 80 1009.3
20260505212703 50 11 3.0 6.0 0.00 0.00 0.00 80 1009.2
20260505211803 50 2 3.0 8.0 0.00 0.00 0.00 80 1009.2
20260505210903 50 1 4.0 12.0 0.00 0.00 0.00 80 1009.4
20260505210003 50 357 3.0 6.0 0.00 0.00 0.00 80 1009.4
20260505205403 50 360 3.0 6.0 0.00 0.00 0.00 80 1009.4
20260505204503 50 356 3.0 6.0 0.00 0.00 0.00 80 1009.5
20260505203603 50 4 3.0 7.0 0.00 0.00 0.00 80 1009.5
20260505202703 50 3 3.0 9.0 0.00 0.00 0.00 80 1009.6
20260505201803 50 5 3.0 7.0 0.00 0.00 0.00 80 1009.5
20260505200903 50 357 3.0 7.0 0.00 0.00 0.00 80 1009.5
20260505200003 50 6 3.0 7.0 0.00 0.00 0.00 79 1009.5
20260505195403 50 7 2.0 7.0 0.00 0.00 0.00 79 1009.5
20260505194503 51 5 3.0 10.0 0.00 0.00 0.00 80 1009.5
20260505193603 51 3 2.0 5.0 0.00 0.00 0.00 80 1009.5
20260505192703 51 355 2.0 7.0 0.00 0.00 0.00 80 1009.4
20260505191803 51 358 3.0 7.0 0.00 0.00 0.00 80 1009.3
20260505190903 51 359 3.0 7.0 0.00 0.00 0.00 80 1009.3
20260505190003 51 3 2.0 6.0 0.00 0.00 0.00 80 1009.2
20260505185403 51 7 3.0 8.0 0.00 0.00 0.00 80 1009.1
20260505184503 51 357 3.0 8.0 0.00 0.00 0.00 80 1009.0
20260505183816 51 353 3.0 7.0 0.00 0.00 0.00 80 1009.0
20260505182916 51 7 3.0 9.0 0.00 0.00 0.00 80 1009.1
20260505181803 51 356 3.0 8.0 0.00 0.00 0.00 80 1009.0
20260505180903 52 356 3.0 7.0 0.00 0.00 0.00 80 1009.0
20260505180003 52 357 2.0 6.0 0.00 0.00 0.00 80 1009.2
20260505175617 52 4 2.0 5.0 0.00 0.00 0.00 80 1009.2
20260505174503 52 360 3.0 8.0 0.00 0.00 0.00 79 1009.3
20260505173603 52 6 3.0 8.0 0.00 0.00 0.00 79 1009.1
20260505172703 52 13 3.0 8.0 0.00 0.00 0.00 79 1009.1
20260505171803 52 8 3.0 7.0 0.00 0.00 0.00 79 1009.2
20260505170903 52 8 3.0 6.0 0.00 0.00 0.00 79 1009.3
20260505170003 53 1 3.0 6.0 0.00 0.00 0.00 78 1009.4
20260505165617 53 360 3.0 6.0 0.00 0.00 0.00 79 1009.4
20260505164716 53 19 2.0 5.0 0.00 0.00 0.00 78 1009.5
20260505163603 53 10 2.0 7.0 0.00 0.00 0.00 78 1009.5
20260505162703 53 13 3.0 7.0 0.00 0.00 0.00 78 1009.6
20260505161803 53 11 3.0 8.0 0.00 0.00 0.00 78 1009.5
20260505160903 53 11 3.0 8.0 0.00 0.01 0.00 78 1009.4
20260505152703 53 11 3.0 8.0 0.00 0.01 0.00 76 1009.6
20260505151803 54 2 3.0 8.0 0.00 0.01 0.00 76 1009.6
20260505150903 54 6 2.0 6.0 0.00 0.01 0.00 75 1009.6
20260505124503 53 7 2.0 9.0 0.00 0.01 0.00 79 1010.4
20260505123603 53 13 1.0 4.0 0.00 0.02 0.00 80 1010.5
20260505122703 53 131 1.0 3.0 0.00 0.04 0.00 80 1010.6
20260505121803 52 43 2.0 5.0 0.00 0.09 0.00 80 1010.5
20260505120903 52 22 2.0 5.0 0.00 0.20 0.00 80 1010.5
20260505120003 52 4 2.0 8.0 0.00 0.39 0.00 80 1010.5
20260505115403 52 8 2.0 8.0 0.00 0.52 0.00 80 1010.6
20260505114503 52 22 2.0 5.0 0.00 0.54 0.00 81 1010.6
20260505113603 52 15 2.0 7.0 0.00 0.54 0.00 80 1010.5
20260505112703 52 10 2.0 7.0 0.00 0.54 0.00 82 1010.6
20260505111803 52 60 1.0 4.0 0.00 0.54 0.00 82 1010.7
20260505110903 52 18 2.0 7.0 0.00 0.54 0.00 82 1010.8
20260505110219 51 10 3.0 9.0 0.00 0.54 0.00 81 1010.8
20260505101803 50 3 2.0 8.0 0.00 0.54 0.00 83 1011.0
20260505101115 50 351 2.0 8.0 0.00 0.54 0.00 83 1010.9
20260505100003 51 12 2.0 6.0 0.00 0.54 0.00 84 1011.2
20260505095403 50 4 3.0 8.0 0.00 0.54 0.00 83 1011.1
20260505094503 50 9 3.0 7.0 0.00 0.54 0.00 84 1011.2
20260505093603 50 22 2.0 7.0 0.00 0.54 0.00 85 1011.1
20260505092703 50 17 3.0 8.0 0.00 0.54 0.00 85 1011.2
20260505091803 49 10 3.0 8.0 0.00 0.54 0.00 85 1011.2
20260505090903 49 5 3.0 8.0 0.00 0.54 0.00 85 1011.3
20260505090003 49 15 2.0 5.0 0.00 0.54 0.00 86 1011.2
20260505085619 49 10 1.0 5.0 0.00 0.54 0.00 86 1011.3
20260505084503 49 10 2.0 7.0 0.00 0.54 0.00 86 1011.1
20260505083603 49 13 3.0 8.0 0.00 0.54 0.00 87 1011.3
20260505082703 49 11 2.0 7.0 0.00 0.54 0.00 87 1011.2
20260505082016 49 8 1.0 5.0 0.00 0.54 0.00 88 1011.3
20260505080903 48 14 3.0 8.0 0.00 0.54 0.00 88 1011.3